Weather History for Minden, LA

Change the Weather History Date:

Thursday, February 6, 2014

  Actual Average (KBAD) Record (KBAD)
Temperature  
Mean Temperature 31 °F -  
Max Temperature 34 °F 55 °F 75 °F (1999)
Min Temperature 28 °F 37 °F 28 °F (2000)
Degree Days  
Heating Degree Days 34    
Moisture  
Dew Point 22 °F    
Average Humidity 69    
Maximum Humidity 77    
Minimum Humidity 59    
Precipitation  
Precipitation 0.00 in - - ()
Sea Level Pressure  
Sea Level Pressure 30.45 in    
Wind  
Wind Speed 5 mph (NNE)    
Max Wind Speed 13 mph    
Max Gust Speed 16 mph    
Visibility 10 miles    
Events      
Averages and records for this station are not official NWS values.
T = Trace of Precipitation, MM = Missing Value Source: NWS Daily Summary

Daily Weather History Graph

Daily Weather History Graph

Search for Another Location

Airport:

Trip Planner

Search our weather history database for the weather conditions in past years. The results will help you decide how hot, cold, wet, or windy it might be!

Date:

Astronomy

Feb. 06, 2014 Rise Set
Actual Time 7:04 AM CST 5:50 PM CST
Civil Twilight 6:38 AM CST 6:16 PM CST
Nautical Twilight 6:09 AM CST 6:45 PM CST
Astronomical Twilight 5:40 AM CST 7:14 PM CST
Moon 11:24 AM CST (2/6) 12:20 AM CST (2/6)
Length of Visible Light 11h 37m
Length of Day
10h 46m
Waxing Crescent, 49% of the Moon is Illuminated
Feb 6
Waxing Crescent
Feb 6
First Quarter
Feb 14
Full
Feb 22
Last Quarter
Mar 1
New

Hourly Weather History & Observations

Time (CST) Temp. Windchill Dew Point Humidity Pressure Visibility Wind Dir Wind Speed Gust Speed Precip Events Conditions
12:15 AM 31.6 °F 27.0 °F 24.1 °F 74% 30.44 in 10.0 mi NNE 4.6 mph - N/A   Overcast
12:35 AM 31.6 °F 26.0 °F 24.4 °F 75% 30.45 in 10.0 mi North 5.8 mph - N/A   Overcast
12:55 AM 31.1 °F 26.4 °F 24.4 °F 76% 30.43 in 10.0 mi NNE 4.6 mph - N/A   Overcast
1:15 AM 31.1 °F 26.4 °F 24.3 °F 76% 30.43 in 10.0 mi NNE 4.6 mph - N/A   Overcast
1:35 AM 31.1 °F 25.4 °F 24.4 °F 76% 30.44 in 10.0 mi North 5.8 mph - N/A   Overcast
1:55 AM 31.1 °F 25.4 °F 24.4 °F 76% 30.43 in 10.0 mi North 5.8 mph - N/A   Overcast
2:15 AM 31.1 °F 23.7 °F 24.6 °F 77% 30.43 in 10.0 mi NNE 8.1 mph - N/A   Overcast
2:35 AM 31.1 °F - 24.6 °F 77% 30.42 in 10.0 mi Calm Calm - N/A   Overcast
2:55 AM 31.1 °F 27.7 °F 24.8 °F 77% 30.44 in 10.0 mi North 3.5 mph - N/A   Overcast
3:15 AM 31.1 °F 26.4 °F 24.8 °F 77% 30.43 in 10.0 mi NNE 4.6 mph - N/A   Overcast
3:35 AM 31.1 °F 25.4 °F 24.8 °F 77% 30.44 in 10.0 mi North 5.8 mph - N/A   Overcast
3:55 AM 31.1 °F 26.4 °F 24.6 °F 77% 30.44 in 10.0 mi North 4.6 mph - N/A   Overcast
4:15 AM 30.9 °F 26.2 °F 24.1 °F 76% 30.45 in 10.0 mi North 4.6 mph - N/A   Overcast
4:35 AM 30.9 °F 25.2 °F 23.9 °F 75% 30.46 in 10.0 mi North 5.8 mph - N/A   Overcast
4:55 AM 30.7 °F 27.3 °F 23.9 °F 76% 30.47 in 10.0 mi NNE 3.5 mph - N/A   Overcast
5:15 AM 30.7 °F 26.0 °F 24.1 °F 76% 30.47 in 10.0 mi NNE 4.6 mph - N/A   Overcast
5:35 AM 30.2 °F - 23.9 °F 77% 30.47 in 10.0 mi Calm Calm - N/A   Overcast
5:55 AM 30.2 °F 24.3 °F 23.9 °F 77% 30.46 in 10.0 mi North 5.8 mph - N/A   Overcast
6:15 AM 30.2 °F 23.4 °F 23.5 °F 76% 30.47 in 10.0 mi NNE 6.9 mph - N/A   Overcast
6:35 AM 30.2 °F 24.3 °F 23.0 °F 75% 30.47 in 10.0 mi North 5.8 mph - N/A   Overcast
6:55 AM 29.8 °F 23.9 °F 22.6 °F 75% 30.47 in 10.0 mi North 5.8 mph - N/A   Overcast
7:15 AM 29.7 °F 23.7 °F 22.6 °F 75% 30.48 in 10.0 mi NNE 5.8 mph - N/A   Overcast
7:35 AM 29.1 °F 20.6 °F 22.1 °F 75% 30.48 in 10.0 mi North 9.2 mph - N/A   Overcast
7:55 AM 29.1 °F 21.3 °F 22.1 °F 75% 30.48 in 10.0 mi North 8.1 mph - N/A   Overcast
8:15 AM 28.8 °F 20.2 °F 21.2 °F 73% 30.47 in 10.0 mi North 9.2 mph - N/A   Overcast
8:35 AM 28.9 °F 19.8 °F 21.6 °F 74% 30.50 in 10.0 mi North 10.4 mph 16.1 mph N/A   Overcast
8:55 AM 28.4 °F 21.2 °F 20.8 °F 73% 30.52 in 10.0 mi North 6.9 mph - N/A   Overcast
9:15 AM 28.4 °F 20.4 °F 21.0 °F 74% 30.53 in 10.0 mi North 8.1 mph - N/A   Overcast
9:35 AM 28.6 °F 22.4 °F 20.7 °F 72% 30.54 in 10.0 mi North 5.8 mph - N/A   Overcast
9:55 AM 28.4 °F 24.6 °F 20.5 °F 72% 30.53 in 10.0 mi NNE 3.5 mph - N/A   Overcast
10:15 AM 29.1 °F 23.0 °F 20.8 °F 71% 30.53 in 10.0 mi NNE 5.8 mph - N/A   Overcast
10:35 AM 29.8 °F 23.0 °F 21.0 °F 70% 30.53 in 10.0 mi East 6.9 mph - N/A   Overcast
10:55 AM 29.7 °F 24.7 °F 20.7 °F 69% 30.54 in 10.0 mi NE 4.6 mph - N/A   Overcast
11:15 AM 29.8 °F 24.9 °F 20.7 °F 69% 30.53 in 10.0 mi ENE 4.6 mph - N/A   Overcast
11:35 AM 30.2 °F 24.3 °F 20.8 °F 68% 30.53 in 10.0 mi NNW 5.8 mph - N/A   Overcast
11:55 AM 30.6 °F 23.8 °F 21.0 °F 68% 30.53 in 10.0 mi NW 6.9 mph - N/A   Overcast
12:15 PM 31.5 °F 26.8 °F 21.6 °F 67% 30.51 in 10.0 mi North 4.6 mph - N/A   Overcast
12:35 PM 32.5 °F 24.8 °F 21.4 °F 64% 30.48 in 10.0 mi North 9.2 mph 16.1 mph N/A   Mostly Cloudy
12:55 PM 34.2 °F 28.2 °F 21.6 °F 60% 30.47 in 10.0 mi NE 6.9 mph - N/A   Scattered Clouds
1:15 PM 32.4 °F 25.3 °F 21.2 °F 63% 30.46 in 10.0 mi NNW 8.1 mph - N/A   Mostly Cloudy
1:35 PM 34.2 °F 31.2 °F 21.2 °F 59% 30.45 in 10.0 mi NNW 3.5 mph - N/A   Overcast
1:55 PM 32.9 °F 23.7 °F 20.7 °F 61% 30.44 in 10.0 mi North 12.7 mph - N/A   Overcast
2:15 PM 32.9 °F 25.9 °F 20.5 °F 60% 30.43 in 10.0 mi NNE 8.1 mph - N/A   Overcast
2:35 PM 32.5 °F 27.1 °F 20.3 °F 61% 30.42 in 10.0 mi NE 5.8 mph - N/A   Overcast
2:55 PM 32.4 °F 26.9 °F 19.9 °F 60% 30.42 in 10.0 mi North 5.8 mph - N/A   Overcast
3:15 PM 32.2 °F 27.7 °F 20.1 °F 61% 30.42 in 10.0 mi NNE 4.6 mph - N/A   Overcast
3:35 PM 32.0 °F 27.5 °F 19.8 °F 61% 30.42 in 10.0 mi NE 4.6 mph - N/A   Overcast
3:55 PM 32.0 °F 25.6 °F 19.6 °F 60% 30.42 in 10.0 mi NNE 6.9 mph - N/A   Overcast
4:15 PM 32.0 °F 26.4 °F 19.6 °F 60% 30.42 in 10.0 mi NE 5.8 mph - N/A   Overcast
4:35 PM 32.0 °F - 19.9 °F 61% 30.42 in 10.0 mi Calm Calm - N/A   Overcast
4:55 PM 32.0 °F 28.7 °F 19.9 °F 61% 30.42 in 10.0 mi NE 3.5 mph - N/A   Overcast
5:15 PM 31.8 °F 26.2 °F 20.1 °F 62% 30.42 in 10.0 mi ENE 5.8 mph - N/A   Overcast
5:35 PM 31.6 °F 27.0 °F 19.9 °F 62% 30.42 in 10.0 mi ENE 4.6 mph - N/A   Overcast
5:55 PM 31.1 °F 26.4 °F 19.9 °F 63% 30.42 in 10.0 mi ENE 4.6 mph - N/A   Overcast
6:15 PM 31.1 °F 27.7 °F 19.9 °F 63% 30.43 in 10.0 mi NE 3.5 mph - N/A   Overcast
6:35 PM 31.1 °F 27.7 °F 20.1 °F 64% 30.44 in 10.0 mi NNE 3.5 mph - N/A   Overcast
6:55 PM 31.1 °F 27.7 °F 20.3 °F 64% 30.44 in 10.0 mi NE 3.5 mph - N/A   Overcast
7:15 PM 30.9 °F 27.5 °F 20.3 °F 65% 30.43 in 10.0 mi ENE 3.5 mph - N/A   Overcast
7:35 PM 30.6 °F 27.1 °F 20.5 °F 66% 30.44 in 10.0 mi East 3.5 mph - N/A   Overcast
7:55 PM 30.2 °F 26.7 °F 20.1 °F 66% 30.43 in 10.0 mi ENE 3.5 mph - N/A   Overcast
8:15 PM 30.7 °F 27.3 °F 20.8 °F 67% 30.44 in 10.0 mi ENE 3.5 mph - N/A   Overcast
8:35 PM 30.6 °F 27.1 °F 20.3 °F 66% 30.44 in 10.0 mi NE 3.5 mph - N/A   Overcast
8:55 PM 30.6 °F 25.8 °F 20.7 °F 67% 30.43 in 10.0 mi ENE 4.6 mph - N/A   Overcast
9:15 PM 30.2 °F 25.4 °F 20.3 °F 67% 30.43 in 10.0 mi NE 4.6 mph - N/A   Overcast
9:35 PM 30.2 °F 24.3 °F 20.8 °F 68% 30.43 in 10.0 mi NE 5.8 mph - N/A   Overcast
9:55 PM 30.2 °F 26.7 °F 20.3 °F 67% 30.44 in 10.0 mi NNE 3.5 mph - N/A   Overcast
10:15 PM 30.0 °F 23.2 °F 20.1 °F 67% 30.44 in 10.0 mi NNE 6.9 mph - N/A   Overcast
10:35 PM 30.0 °F 26.5 °F 20.5 °F 68% 30.42 in 10.0 mi NNE 3.5 mph - N/A   Overcast
10:55 PM 29.8 °F 26.3 °F 20.3 °F 68% 30.42 in 10.0 mi NNE 3.5 mph - N/A   Overcast
11:15 PM 30.0 °F 25.2 °F 20.5 °F 68% 30.42 in 10.0 mi ENE 4.6 mph - N/A   Overcast
11:35 PM 29.8 °F 26.3 °F 20.3 °F 68% 30.42 in 10.0 mi NNE 3.5 mph - N/A   Overcast
11:55 PM 29.7 °F 23.7 °F 20.3 °F 68% 30.41 in 10.0 mi NE 5.8 mph - N/A   Overcast